Location: Colossi of Memnon
(25.7167°N, 32.6167°E)
Time: 04:43:55
(UTC+00:00)

CBERS 1 LM4 rocket - Pass Details

Date: 05 March 2021
Orbit: 700 x 843 km, 98.8° (Epoch: 10 April)

Event Time Altitude Azimuth Distance (km) Brightness Sun altitude
Rises 02:07:29 0° 13° (NNE) 3,106 7.9 -28.1°
Reaches altitude 10° 02:09:45 10° 13° (NNE) 2,174 7.1 -27.6°
Enters shadow 02:13:56 69° 22° (NNE) 747 4.4 -26.7°
